COSMOS 2251 DEB, 37491

Orbit data source: Space-Track

COSMOS 2251 DEB, 37491 is space debris in LEO originally from a launch on Wed, 16 Jun 1993 UTC launched from the Plesetsk Missile And Space Complex (PKMTR). The debris from Iridium 33, an American commercial communications satellite, has been tracked extensively since its accidental collision with the defunct Russian satellite Cosmos 2251 in 2009. This event, occurring at high speed in low Earth orbit (LEO), generated thousands of pieces of space debris, significantly increasing the risk of further collisions. The Iridium 33 debris cloud has impacted space traffic management and orbital debris mitigation strategies, making it a subject of ongoing study in space situational awareness.

Loading next visibility...
Identifier
37491, 1993-036BLU
Orbit
LEO
Country
Flag of CISCIS
Related business
Manufacturer
Unknown
Mission
Spacecraft
Bus & Motor
Unknown
Mass
Unknown
Launch date (UTC)
1993-06-16 (33 years ago)
Launch vehicle
Unknown
Launch site
Plesetsk Missile And Space Complex (PKMTR)
Object type
Payload
Rocket body
Debris
Shape & HBR
Unknown shape, 0.1 m
Radar Cross Section
Small (<0.1 m²)

Expand to show TLE details & history
Last TLE update: 5 days ago

TLE from 5 days ago
0 COSMOS 2251 DEB
1 37491U 93036BLU 26145.85044604  .00000726  00000-0  54503-3 0  9999
2 37491  73.9070 358.8741 0311139 321.2609  36.6558 13.75792174580034
Epoch: 2026-05-25T20:24Z
TLE epoch observation values (Epoch: 2026-05-25T20:24:38.537Z)
Latitude
-0.00002°
Longitude
169.2812°
Altitude
800.358 km
Speed
7.545 km/s
True Right ascension
23h 55m 29s
True Declination
0° 00' 00"
Sunlit
Object was in daylight at epoch
Visualization orbit readout
Latitude
Unknown
Longitude
Unknown
Altitude
Unknown
Speed
Unknown
Apparent Right ascension
Unknown
Apparent Declination
Unknown
Sunlit
N/A
Visualization observer readout
Local Sidereal Time
11:30:52
Azimuth
Unknown
Elevation
Unknown
Doppler factor
Unknown
Orbital elements
Apogee altitude
1,205.381 km
Perigee altitude
747.715 km
Semi-major axis
7,354.685 km
Eccentricity
0.03111
Inclination
73.907°
RAAN
358.8741°
Arg. of periapsis
321.2609°
True anomaly
38.85228°
Mean anomaly
36.6558°
Eccentric anomaly
37.74713°
Mean motion
3.4411 °/min
Orbital period
104.62 mins
BSTAR
0.00054503
Loading maneuver chart data...
Computing Atmospheric mass density...

Documentation

Showing up to 5 results
|